| time (UTC) | temp F | wind direction | speed MPH | gust MPH | rain 1hr in | rain 24hr in | rain mn in | humidity % | barometer mb |
| 20260507230506 | 54 | 176 | 1.0 | 3.0 | 0.00 | 0.46 | 0.38 | 69 | 1006.0 |
| 20260507230017 | 54 | 200 | 1.0 | 3.0 | 0.00 | 0.47 | 0.38 | 69 | 1006.1 |
| 20260507225506 | 55 | 210 | 0.0 | 2.0 | 0.00 | 0.47 | 0.38 | 68 | 1006.0 |
| 20260507225007 | 55 | 205 | 2.0 | 2.0 | 0.00 | 0.48 | 0.38 | 67 | 1005.9 |
| 20260507224518 | 56 | 169 | 0.0 | 3.0 | 0.00 | 0.48 | 0.38 | 66 | 1005.8 |
| 20260507224003 | 56 | 196 | 1.0 | 4.0 | 0.00 | 0.48 | 0.38 | 64 | 1005.7 |
| 20260507223503 | 56 | 164 | 1.0 | 4.0 | 0.00 | 0.49 | 0.38 | 62 | 1005.7 |
| 20260507223007 | 56 | 153 | 1.0 | 3.0 | 0.00 | 0.50 | 0.38 | 62 | 1005.8 |
| 20260507222503 | 57 | 200 | 1.0 | 3.0 | 0.00 | 0.51 | 0.38 | 59 | 1005.8 |
| 20260507222003 | 57 | 176 | 0.0 | 4.0 | 0.00 | 0.51 | 0.38 | 59 | 1005.9 |
| 20260507221506 | 57 | 186 | 2.0 | 4.0 | 0.00 | 0.51 | 0.38 | 56 | 1005.9 |
| 20260507221006 | 57 | 160 | 1.0 | 5.0 | 0.00 | 0.51 | 0.38 | 57 | 1005.9 |
| 20260507220504 | 58 | 188 | 1.0 | 5.0 | 0.00 | 0.51 | 0.38 | 59 | 1005.9 |
| 20260507220011 | 58 | 165 | 2.0 | 4.0 | 0.00 | 0.51 | 0.38 | 56 | 1005.9 |
| 20260507215504 | 58 | 172 | 1.0 | 4.0 | 0.00 | 0.51 | 0.38 | 55 | 1005.8 |
| 20260507215004 | 58 | 181 | 1.0 | 4.0 | 0.00 | 0.51 | 0.38 | 54 | 1005.7 |
| 20260507214515 | 59 | 187 | 1.0 | 6.0 | 0.00 | 0.51 | 0.38 | 54 | 1005.8 |
| 20260507214007 | 59 | 221 | 2.0 | 6.0 | 0.00 | 0.51 | 0.38 | 53 | 1005.7 |
| 20260507213503 | 59 | 166 | 2.0 | 3.0 | 0.00 | 0.51 | 0.38 | 53 | 1005.8 |
| 20260507213007 | 59 | 179 | 1.0 | 3.0 | 0.00 | 0.51 | 0.38 | 55 | 1005.8 |
| 20260507212503 | 59 | 197 | 1.0 | 3.0 | 0.00 | 0.51 | 0.38 | 58 | 1005.8 |
| 20260507212003 | 59 | 160 | 0.0 | 4.0 | 0.00 | 0.51 | 0.38 | 56 | 1005.8 |
| 20260507211504 | 59 | 169 | 1.0 | 4.0 | 0.00 | 0.51 | 0.38 | 56 | 1005.7 |
| 20260507211005 | 59 | 200 | 1.0 | 4.0 | 0.00 | 0.51 | 0.38 | 58 | 1005.6 |
| 20260507210504 | 60 | 156 | 1.0 | 3.0 | 0.00 | 0.51 | 0.38 | 55 | 1005.7 |
| 20260507210010 | 60 | 191 | 2.0 | 4.0 | 0.00 | 0.51 | 0.38 | 59 | 1005.7 |
| 20260507205504 | 60 | 167 | 1.0 | 4.0 | 0.00 | 0.51 | 0.38 | 58 | 1005.7 |
| 20260507205005 | 59 | 219 | 0.0 | 4.0 | 0.00 | 0.51 | 0.38 | 60 | 1005.8 |
| 20260507204512 | 60 | 155 | 1.0 | 3.0 | 0.00 | 0.51 | 0.38 | 55 | 1005.6 |
| 20260507204004 | 60 | 187 | 1.0 | 4.0 | 0.00 | 0.51 | 0.38 | 55 | 1005.6 |
| 20260507203506 | 60 | 187 | 1.0 | 4.0 | 0.00 | 0.51 | 0.38 | 60 | 1005.6 |
| 20260507203018 | 59 | 221 | 1.0 | 4.0 | 0.00 | 0.51 | 0.38 | 61 | 1005.6 |
| 20260507202508 | 59 | 224 | 2.0 | 4.0 | 0.00 | 0.51 | 0.38 | 60 | 1005.6 |
| 20260507202002 | 59 | 140 | 2.0 | 3.0 | 0.00 | 0.51 | 0.38 | 58 | 1005.6 |
| 20260507201505 | 59 | 150 | 1.0 | 3.0 | 0.00 | 0.51 | 0.38 | 59 | 1005.5 |
| 20260507201002 | 58 | 176 | 1.0 | 3.0 | 0.00 | 0.51 | 0.38 | 60 | 1005.6 |
| 20260507200504 | 58 | 198 | 1.0 | 4.0 | 0.00 | 0.51 | 0.38 | 61 | 1005.7 |
| 20260507200007 | 58 | 155 | 2.0 | 4.0 | 0.00 | 0.51 | 0.38 | 61 | 1005.6 |
| 20260507195504 | 58 | 178 | 1.0 | 5.0 | 0.00 | 0.51 | 0.38 | 61 | 1005.6 |
| 20260507195009 | 58 | 115 | 2.0 | 5.0 | 0.00 | 0.51 | 0.38 | 61 | 1005.6 |
| 20260507194527 | 58 | 160 | 1.0 | 4.0 | 0.00 | 0.51 | 0.38 | 61 | 1005.8 |
| 20260507194006 | 58 | 195 | 2.0 | 3.0 | 0.00 | 0.51 | 0.38 | 68 | 1005.9 |
| 20260507193508 | 58 | 142 | 1.0 | 4.0 | 0.00 | 0.51 | 0.38 | 71 | 1006.0 |
| 20260507193018 | 59 | 173 | 2.0 | 4.0 | 0.00 | 0.51 | 0.38 | 70 | 1006.0 |
| 20260507192508 | 59 | 186 | 2.0 | 4.0 | 0.00 | 0.51 | 0.38 | 72 | 1005.9 |
| 20260507192009 | 59 | 184 | 1.0 | 4.0 | 0.00 | 0.51 | 0.38 | 69 | 1006.0 |
| 20260507191521 | 59 | 149 | 2.0 | 3.0 | 0.00 | 0.51 | 0.38 | 72 | 1006.3 |
| 20260507191012 | 59 | 155 | 1.0 | 3.0 | 0.00 | 0.51 | 0.38 | 73 | 1006.3 |
| 20260507190502 | 59 | 184 | 2.0 | 3.0 | 0.00 | 0.51 | 0.38 | 71 | 1006.4 |
| 20260507190010 | 59 | 150 | 1.0 | 3.0 | 0.00 | 0.51 | 0.38 | 70 | 1006.4 |
| 20260507185503 | 59 | 206 | 1.0 | 4.0 | 0.00 | 0.51 | 0.38 | 71 | 1006.4 |
| 20260507185006 | 59 | 172 | 2.0 | 5.0 | 0.00 | 0.51 | 0.38 | 74 | 1006.5 |
| 20260507184506 | 59 | 218 | 2.0 | 5.0 | 0.00 | 0.51 | 0.38 | 72 | 1006.5 |
| 20260507184004 | 60 | 176 | 1.0 | 4.0 | 0.00 | 0.51 | 0.38 | 71 | 1006.7 |
| 20260507183504 | 60 | 153 | 2.0 | 4.0 | 0.00 | 0.51 | 0.38 | 69 | 1006.7 |
| 20260507183014 | 61 | 205 | 2.0 | 4.0 | 0.00 | 0.51 | 0.38 | 69 | 1006.8 |
| 20260507182507 | 61 | 188 | 1.0 | 4.0 | 0.00 | 0.51 | 0.38 | 66 | 1006.8 |
| 20260507182009 | 62 | 177 | 2.0 | 5.0 | 0.00 | 0.51 | 0.38 | 68 | 1006.8 |
| 20260507181520 | 62 | 195 | 1.0 | 5.0 | 0.00 | 0.51 | 0.38 | 66 | 1006.8 |
| 20260507181009 | 62 | 172 | 1.0 | 3.0 | 0.00 | 0.51 | 0.38 | 69 | 1006.8 |
| 20260507180508 | 62 | 176 | 0.0 | 2.0 | 0.00 | 0.51 | 0.38 | 69 | 1006.8 |
| 20260507180024 | 62 | 184 | 1.0 | 2.0 | 0.00 | 0.51 | 0.38 | 69 | 1006.9 |
| 20260507175507 | 62 | 187 | 1.0 | 2.0 | 0.00 | 0.51 | 0.38 | 70 | 1006.9 |
| 20260507175004 | 61 | 163 | 1.0 | 3.0 | 0.00 | 0.51 | 0.38 | 68 | 1006.9 |
| 20260507174511 | 62 | 169 | 1.0 | 3.0 | 0.00 | 0.51 | 0.38 | 66 | 1006.9 |
| 20260507174004 | 62 | 199 | 1.0 | 2.0 | 0.00 | 0.51 | 0.38 | 71 | 1007.0 |
| 20260507173506 | 62 | 211 | 1.0 | 2.0 | 0.00 | 0.51 | 0.38 | 70 | 1007.1 |
| 20260507173017 | 62 | 96 | 1.0 | 3.0 | 0.00 | 0.51 | 0.38 | 71 | 1007.2 |
| 20260507172505 | 61 | 84 | 1.0 | 3.0 | 0.00 | 0.51 | 0.38 | 71 | 1007.2 |
| 20260507172007 | 61 | 169 | 1.0 | 2.0 | 0.00 | 0.51 | 0.38 | 71 | 1007.2 |
| 20260507171515 | 61 | 108 | 1.0 | 2.0 | 0.00 | 0.51 | 0.38 | 71 | 1007.2 |
| 20260507171007 | 61 | 146 | 1.0 | 3.0 | 0.00 | 0.51 | 0.38 | 65 | 1007.2 |
| 20260507170507 | 61 | 147 | 2.0 | 4.0 | 0.00 | 0.51 | 0.38 | 64 | 1007.4 |
| 20260507170023 | 61 | 181 | 1.0 | 4.0 | 0.00 | 0.51 | 0.38 | 70 | 1007.4 |
| 20260507165507 | 61 | 172 | 1.0 | 2.0 | 0.00 | 0.51 | 0.38 | 69 | 1007.4 |
| 20260507165008 | 61 | 150 | 1.0 | 2.0 | 0.00 | 0.51 | 0.38 | 66 | 1007.4 |
| 20260507164533 | 61 | 188 | 0.0 | 2.0 | 0.00 | 0.51 | 0.38 | 67 | 1007.5 |
| 20260507164012 | 61 | 227 | 0.0 | 3.0 | 0.00 | 0.51 | 0.38 | 70 | 1007.6 |
| 20260507163504 | 61 | 245 | 0.0 | 3.0 | 0.00 | 0.51 | 0.38 | 69 | 1007.7 |
| 20260507163007 | 61 | 205 | 1.0 | 3.0 | 0.00 | 0.51 | 0.38 | 74 | 1007.6 |
| 20260507162504 | 60 | 221 | 0.0 | 3.0 | 0.00 | 0.51 | 0.38 | 70 | 1007.7 |
| 20260507162008 | 60 | 192 | 1.0 | 2.0 | 0.00 | 0.51 | 0.38 | 72 | 1007.8 |
| 20260507161515 | 60 | 224 | 0.0 | 2.0 | 0.00 | 0.51 | 0.38 | 73 | 1007.8 |
| 20260507161007 | 60 | 226 | 1.0 | 2.0 | 0.00 | 0.51 | 0.38 | 81 | 1007.8 |
| 20260507160507 | 59 | 155 | 0.0 | 2.0 | 0.00 | 0.51 | 0.38 | 81 | 1007.8 |
| 20260507160024 | 59 | 229 | 0.0 | 3.0 | 0.00 | 0.51 | 0.38 | 81 | 1008.0 |
| 20260507155509 | 58 | 147 | 0.0 | 3.0 | 0.00 | 0.51 | 0.38 | 80 | 1008.1 |
| 20260507155011 | 58 | 252 | 0.0 | 2.0 | 0.00 | 0.51 | 0.38 | 77 | 1008.1 |
| 20260507154522 | 58 | 197 | 0.0 | 2.0 | 0.00 | 0.51 | 0.38 | 79 | 1008.1 |
| 20260507154009 | 58 | 229 | 0.0 | 2.0 | 0.00 | 0.51 | 0.38 | 80 | 1008.2 |
| 20260507153508 | 58 | 276 | 0.0 | 2.0 | 0.01 | 0.51 | 0.38 | 85 | 1008.3 |
| 20260507153034 | 58 | 221 | 1.0 | 2.0 | 0.01 | 0.51 | 0.38 | 82 | 1008.3 |
| 20260507152511 | 58 | 214 | 1.0 | 2.0 | 0.01 | 0.51 | 0.38 | 81 | 1008.3 |
| 20260507152004 | 57 | 276 | 1.0 | 2.0 | 0.01 | 0.51 | 0.38 | 84 | 1008.4 |
| 20260507151510 | 56 | 236 | 0.0 | 2.0 | 0.01 | 0.51 | 0.38 | 88 | 1008.5 |
| 20260507151004 | 56 | 277 | 1.0 | 2.0 | 0.01 | 0.51 | 0.38 | 91 | 1008.5 |
| 20260507150507 | 55 | 216 | 1.0 | 2.0 | 0.01 | 0.51 | 0.38 | 87 | 1008.6 |
| 20260507150015 | 55 | 217 | 1.0 | 2.0 | 0.01 | 0.51 | 0.38 | 91 | 1008.5 |
| 20260507145507 | 54 | 221 | 0.0 | 2.0 | 0.01 | 0.51 | 0.38 | 90 | 1008.2 |
| 20260507145011 | 54 | 269 | 0.0 | 2.0 | 0.01 | 0.51 | 0.38 | 90 | 1008.2 |
| 20260507144523 | 53 | 223 | 1.0 | 3.0 | 0.01 | 0.51 | 0.38 | 90 | 1008.3 |
| 20260507144007 | 53 | 217 | 1.0 | 3.0 | 0.01 | 0.51 | 0.38 | 90 | 1008.3 |
| 20260507143507 | 53 | 216 | 0.0 | 3.0 | 0.00 | 0.50 | 0.37 | 91 | 1008.5 |
| 20260507143027 | 53 | 242 | 1.0 | 3.0 | 0.00 | 0.50 | 0.37 | 92 | 1008.6 |
| 20260507142508 | 52 | 263 | 0.0 | 3.0 | 0.00 | 0.50 | 0.37 | 91 | 1008.4 |
| 20260507142008 | 52 | 221 | 0.0 | 3.0 | 0.00 | 0.50 | 0.37 | 94 | 1008.5 |
| 20260507141531 | 52 | 226 | 0.0 | 2.0 | 0.00 | 0.50 | 0.37 | 95 | 1008.5 |
| 20260507141009 | 51 | 231 | 0.0 | 2.0 | 0.00 | 0.50 | 0.37 | 94 | 1008.6 |
| 20260507140504 | 50 | 210 | 0.0 | 2.0 | 0.00 | 0.50 | 0.37 | 94 | 1008.7 |
| 20260507140019 | 50 | 222 | 0.0 | 2.0 | 0.00 | 0.50 | 0.37 | 94 | 1008.6 |
| 20260507135505 | 50 | 227 | 0.0 | 2.0 | 0.00 | 0.50 | 0.37 | 94 | 1008.5 |
| 20260507135007 | 50 | 231 | 0.0 | 2.0 | 0.00 | 0.50 | 0.37 | 94 | 1008.5 |
| 20260507134518 | 50 | 237 | 0.0 | 2.0 | 0.00 | 0.50 | 0.37 | 94 | 1008.3 |
| 20260507134009 | 50 | 219 | 0.0 | 2.0 | 0.00 | 0.50 | 0.37 | 94 | 1008.3 |
| 20260507133509 | 50 | 219 | 0.0 | 2.0 | 0.00 | 0.50 | 0.37 | 95 | 1008.7 |
| 20260507133027 | 50 | 198 | 0.0 | 2.0 | 0.01 | 0.50 | 0.37 | 95 | 1008.6 |
| 20260507132508 | 49 | 198 | 0.0 | 2.0 | 0.02 | 0.50 | 0.37 | 96 | 1008.3 |
| 20260507132003 | 49 | 231 | 0.0 | 2.0 | 0.02 | 0.50 | 0.37 | 96 | 1008.4 |
| 20260507131515 | 49 | 246 | 0.0 | 2.0 | 0.02 | 0.50 | 0.37 | 96 | 1008.1 |
| 20260507131008 | 48 | 228 | 0.0 | 2.0 | 0.02 | 0.50 | 0.37 | 96 | 1008.1 |
| 20260507130508 | 48 | 228 | 0.0 | 2.0 | 0.02 | 0.50 | 0.37 | 96 | 1008.1 |
| 20260507130010 | 48 | 228 | 0.0 | 2.0 | 0.02 | 0.50 | 0.37 | 95 | 1008.3 |
| 20260507125507 | 48 | 228 | 0.0 | 2.0 | 0.02 | 0.50 | 0.37 | 95 | 1008.2 |
| 20260507125005 | 47 | 228 | 0.0 | 2.0 | 0.02 | 0.50 | 0.37 | 95 | 1008.5 |
| 20260507124520 | 47 | 228 | 0.0 | 2.0 | 0.02 | 0.50 | 0.37 | 95 | 1008.8 |
| 20260507124011 | 47 | 217 | 0.0 | 2.0 | 0.02 | 0.50 | 0.37 | 95 | 1008.6 |
| 20260507123509 | 47 | 217 | 0.0 | 2.0 | 0.03 | 0.50 | 0.37 | 95 | 1008.7 |
| 20260507123022 | 47 | 217 | 0.0 | 2.0 | 0.02 | 0.49 | 0.36 | 94 | 1008.8 |
| 20260507122508 | 48 | 217 | 1.0 | 2.0 | 0.01 | 0.48 | 0.35 | 95 | 1008.7 |
| 20260507122009 | 48 | 226 | 0.0 | 3.0 | 0.01 | 0.48 | 0.35 | 95 | 1008.6 |
| 20260507121522 | 48 | 226 | 0.0 | 3.0 | 0.01 | 0.48 | 0.35 | 95 | 1008.6 |
| 20260507121010 | 48 | 229 | 0.0 | 2.0 | 0.01 | 0.48 | 0.35 | 95 | 1008.3 |
| 20260507120502 | 48 | 229 | 0.0 | 2.0 | 0.01 | 0.48 | 0.35 | 95 | 1008.2 |
| 20260507120008 | 48 | 229 | 0.0 | 2.0 | 0.01 | 0.48 | 0.35 | 95 | 1008.2 |
| 20260507115506 | 48 | 200 | 0.0 | 3.0 | 0.02 | 0.48 | 0.35 | 95 | 1008.6 |
| 20260507115005 | 48 | 221 | 0.0 | 3.0 | 0.02 | 0.48 | 0.35 | 95 | 1008.6 |
| 20260507114512 | 48 | 233 | 0.0 | 2.0 | 0.02 | 0.48 | 0.35 | 95 | 1008.3 |
| 20260507114009 | 48 | 266 | 0.0 | 3.0 | 0.02 | 0.48 | 0.35 | 95 | 1008.3 |
| 20260507113505 | 49 | 217 | 1.0 | 3.0 | 0.02 | 0.47 | 0.34 | 95 | 1008.3 |
| 20260507113036 | 49 | 224 | 1.0 | 3.0 | 0.02 | 0.47 | 0.34 | 95 | 1008.5 |
| 20260507112507 | 49 | 218 | 1.0 | 4.0 | 0.02 | 0.47 | 0.34 | 95 | 1008.7 |
| 20260507112010 | 49 | 225 | 2.0 | 4.0 | 0.03 | 0.47 | 0.34 | 95 | 1008.8 |
| 20260507111528 | 50 | 226 | 1.0 | 2.0 | 0.03 | 0.47 | 0.34 | 96 | 1008.5 |
| 20260507111010 | 50 | 218 | 1.0 | 2.0 | 0.03 | 0.47 | 0.34 | 96 | 1008.1 |
| 20260507110508 | 50 | 226 | 0.0 | 2.0 | 0.03 | 0.47 | 0.34 | 95 | 1007.6 |
| 20260507110024 | 50 | 229 | 0.0 | 3.0 | 0.03 | 0.47 | 0.34 | 95 | 1007.4 |
| 20260507105509 | 50 | 237 | 1.0 | 3.0 | 0.02 | 0.46 | 0.33 | 95 | 1007.4 |
| 20260507105010 | 50 | 281 | 0.0 | 2.0 | 0.02 | 0.46 | 0.33 | 95 | 1007.2 |
| 20260507104510 | 50 | 231 | 0.0 | 2.0 | 0.03 | 0.46 | 0.33 | 95 | 1007.4 |
| 20260507104010 | 50 | 210 | 0.0 | 4.0 | 0.03 | 0.46 | 0.33 | 95 | 1007.4 |
| 20260507103506 | 50 | 247 | 0.0 | 4.0 | 0.02 | 0.45 | 0.32 | 95 | 1007.6 |
| 20260507103020 | 51 | 229 | 1.0 | 4.0 | 0.03 | 0.45 | 0.32 | 95 | 1007.6 |
| 20260507102506 | 51 | 232 | 0.0 | 4.0 | 0.05 | 0.45 | 0.32 | 96 | 1007.3 |
| 20260507102008 | 51 | 222 | 1.0 | 4.0 | 0.05 | 0.44 | 0.31 | 96 | 1007.3 |
| 20260507101520 | 51 | 222 | 1.0 | 4.0 | 0.12 | 0.44 | 0.31 | 96 | 1007.3 |
| 20260507101007 | 51 | 222 | 1.0 | 4.0 | 0.15 | 0.44 | 0.31 | 96 | 1007.0 |
| 20260507100508 | 51 | 227 | 1.0 | 4.0 | 0.16 | 0.44 | 0.31 | 96 | 1006.6 |
| 20260507100022 | 52 | 243 | 1.0 | 3.0 | 0.18 | 0.44 | 0.31 | 96 | 1006.7 |
| 20260507095510 | 52 | 285 | 0.0 | 3.0 | 0.18 | 0.44 | 0.31 | 96 | 1006.7 |
| 20260507095012 | 52 | 221 | 1.0 | 3.0 | 0.18 | 0.44 | 0.31 | 96 | 1006.8 |
| 20260507094526 | 52 | 232 | 1.0 | 3.0 | 0.18 | 0.43 | 0.30 | 96 | 1006.7 |
| 20260507094007 | 52 | 212 | 1.0 | 4.0 | 0.19 | 0.43 | 0.30 | 96 | 1006.4 |
| 20260507093510 | 52 | 223 | 1.0 | 4.0 | 0.20 | 0.43 | 0.30 | 96 | 1006.5 |
| 20260507093012 | 52 | 229 | 0.0 | 2.0 | 0.26 | 0.42 | 0.29 | 96 | 1006.6 |
| 20260507092510 | 52 | 221 | 0.0 | 2.0 | 0.26 | 0.40 | 0.27 | 96 | 1006.7 |
| 20260507092008 | 52 | 221 | 1.0 | 3.0 | 0.25 | 0.39 | 0.26 | 97 | 1006.9 |
| 20260507091515 | 52 | 216 | 1.0 | 3.0 | 0.18 | 0.32 | 0.19 | 96 | 1006.8 |
| 20260507091010 | 52 | 210 | 0.0 | 2.0 | 0.15 | 0.29 | 0.16 | 96 | 1006.6 |
| 20260507090511 | 51 | 210 | 0.0 | 2.0 | 0.14 | 0.28 | 0.15 | 96 | 1006.4 |
| 20260507090019 | 51 | 210 | 0.0 | 2.0 | 0.12 | 0.26 | 0.13 | 96 | 1006.6 |
| 20260507085508 | 51 | 203 | 0.0 | 2.0 | 0.12 | 0.26 | 0.13 | 96 | 1006.7 |
| 20260507085010 | 51 | 187 | 0.0 | 3.0 | 0.12 | 0.26 | 0.13 | 96 | 1006.7 |
| 20260507084529 | 51 | 216 | 0.0 | 3.0 | 0.11 | 0.25 | 0.12 | 96 | 1006.9 |
| 20260507084009 | 51 | 210 | 0.0 | 3.0 | 0.10 | 0.24 | 0.11 | 96 | 1007.0 |
| 20260507083509 | 52 | 136 | 0.0 | 2.0 | 0.09 | 0.23 | 0.10 | 96 | 1007.1 |
| 20260507083028 | 52 | 167 | 1.0 | 3.0 | 0.03 | 0.16 | 0.03 | 96 | 1007.7 |
| 20260507082507 | 52 | 198 | 1.0 | 3.0 | 0.01 | 0.14 | 0.01 | 96 | 1007.3 |
| 20260507082011 | 52 | 210 | 2.0 | 3.0 | 0.01 | 0.14 | 0.01 | 96 | 1007.0 |
| 20260507081520 | 52 | 198 | 1.0 | 2.0 | 0.01 | 0.14 | 0.01 | 96 | 1006.7 |
| 20260507081006 | 52 | 161 | 0.0 | 2.0 | 0.01 | 0.14 | 0.01 | 96 | 1006.3 |
| 20260507080508 | 52 | 161 | 0.0 | 2.0 | 0.01 | 0.14 | 0.01 | 96 | 1005.9 |
| 20260507080019 | 52 | 161 | 0.0 | 2.0 | 0.01 | 0.14 | 0.01 | 96 | 1005.7 |
| 20260507075506 | 52 | 161 | 0.0 | 2.0 | 0.01 | 0.14 | 0.01 | 96 | 1005.9 |
| 20260507075010 | 52 | 161 | 0.0 | 1.0 | 0.01 | 0.14 | 0.01 | 96 | 1006.0 |
| 20260507074522 | 52 | 161 | 0.0 | 0.0 | 0.01 | 0.14 | 0.01 | 96 | 1006.2 |
| 20260507073005 | 52 | 161 | 0.0 | 2.0 | 0.00 | 0.13 | 0.00 | 96 | 1006.1 |
| 20260507072504 | 52 | 161 | 0.0 | 2.0 | 0.00 | 0.13 | 0.00 | 96 | 1006.2 |
| 20260507072003 | 52 | 161 | 0.0 | 2.0 | 0.00 | 0.13 | 0.00 | 96 | 1006.3 |
| 20260507071506 | 52 | 161 | 0.0 | 2.0 | 0.00 | 0.13 | 0.00 | 96 | 1006.2 |
| 20260507071003 | 52 | 161 | 0.0 | 2.0 | 0.00 | 0.13 | 0.00 | 96 | 1006.3 |
| 20260507070504 | 52 | 158 | 0.0 | 3.0 | 0.00 | 0.13 | 0.00 | 96 | 1006.6 |
| 20260507070012 | 52 | 168 | 0.0 | 3.0 | 0.00 | 0.13 | 0.00 | 96 | 1006.6 |
| 20260507065505 | 52 | 197 | 0.0 | 2.0 | 0.00 | 0.13 | 0.00 | 96 | 1006.6 |
| 20260507065003 | 52 | 197 | 1.0 | 2.0 | 0.00 | 0.13 | 0.00 | 96 | 1006.6 |
| 20260507064504 | 52 | 198 | 1.0 | 2.0 | 0.00 | 0.13 | 0.00 | 96 | 1006.5 |
| 20260507064003 | 52 | 169 | 0.0 | 2.0 | 0.00 | 0.13 | 0.00 | 96 | 1006.3 |
| 20260507063507 | 52 | 185 | 0.0 | 2.0 | 0.00 | 0.13 | 0.00 | 96 | 1006.2 |
| 20260507063007 | 52 | 167 | 1.0 | 2.0 | 0.00 | 0.13 | 0.00 | 95 | 1006.5 |
| 20260507062503 | 52 | 167 | 1.0 | 4.0 | 0.00 | 0.13 | 0.00 | 96 | 1006.5 |
| 20260507062003 | 52 | 184 | 1.0 | 4.0 | 0.00 | 0.13 | 0.00 | 96 | 1006.8 |
| 20260507061504 | 52 | 189 | 1.0 | 2.0 | 0.00 | 0.13 | 0.00 | 96 | 1006.8 |
| 20260507061004 | 52 | 187 | 1.0 | 3.0 | 0.00 | 0.13 | 0.00 | 95 | 1006.8 |
| 20260507060505 | 52 | 188 | 1.0 | 3.0 | 0.00 | 0.13 | 0.00 | 95 | 1007.0 |
| 20260507060004 | 52 | 169 | 1.0 | 2.0 | 0.00 | 0.13 | 0.00 | 95 | 1007.1 |
| 20260507055504 | 53 | 203 | 1.0 | 2.0 | 0.00 | 0.13 | 0.00 | 95 | 1007.0 |
| 20260507055008 | 53 | 191 | 0.0 | 3.0 | 0.00 | 0.13 | 0.00 | 95 | 1007.3 |
| 20260507054507 | 53 | 195 | 1.0 | 3.0 | 0.00 | 0.13 | 0.00 | 95 | 1007.3 |
| 20260507054003 | 53 | 176 | 1.0 | 3.0 | 0.00 | 0.13 | 0.00 | 95 | 1007.3 |
| 20260507053505 | 53 | 184 | 1.0 | 5.0 | 0.00 | 0.13 | 0.00 | 95 | 1007.2 |
| 20260507053003 | 53 | 211 | 2.0 | 5.0 | 0.00 | 0.13 | 0.00 | 95 | 1007.3 |
| 20260507052503 | 53 | 205 | 1.0 | 3.0 | 0.00 | 0.13 | 0.00 | 96 | 1007.5 |
| 20260507052006 | 53 | 189 | 1.0 | 3.0 | 0.00 | 0.13 | 0.00 | 95 | 1007.5 |
| 20260507051506 | 53 | 160 | 1.0 | 7.0 | 0.00 | 0.13 | 0.00 | 95 | 1007.4 |
| 20260507051006 | 53 | 205 | 2.0 | 7.0 | 0.00 | 0.13 | 0.00 | 95 | 1007.7 |
| 20260507050505 | 53 | 181 | 1.0 | 3.0 | 0.00 | 0.13 | 0.00 | 95 | 1007.8 |
| 20260507050014 | 53 | 176 | 2.0 | 4.0 | 0.00 | 0.13 | 0.00 | 95 | 1007.8 |
| 20260507045505 | 54 | 155 | 1.0 | 4.0 | 0.00 | 0.13 | 0.00 | 95 | 1007.9 |
| 20260507045004 | 54 | 181 | 1.0 | 4.0 | 0.00 | 0.13 | 0.00 | 95 | 1007.7 |
| 20260507044508 | 54 | 177 | 2.0 | 4.0 | 0.00 | 0.13 | 0.00 | 96 | 1007.9 |
| 20260507044007 | 54 | 162 | 1.0 | 2.0 | 0.00 | 0.13 | 0.00 | 95 | 1007.8 |
| 20260507043507 | 54 | 186 | 1.0 | 2.0 | 0.00 | 0.13 | 0.00 | 95 | 1007.6 |
| 20260507043016 | 54 | 158 | 1.0 | 2.0 | 0.00 | 0.13 | 0.00 | 95 | 1007.7 |
| 20260507042509 | 54 | 176 | 1.0 | 4.0 | 0.00 | 0.13 | 0.00 | 95 | 1007.6 |
| 20260507042006 | 54 | 191 | 1.0 | 4.0 | 0.00 | 0.13 | 0.00 | 95 | 1007.7 |
| 20260507041509 | 54 | 158 | 1.0 | 3.0 | 0.00 | 0.13 | 0.00 | 95 | 1007.8 |
| 20260507041008 | 54 | 168 | 1.0 | 3.0 | 0.00 | 0.13 | 0.00 | 95 | 1008.0 |
| 20260507040506 | 54 | 205 | 1.0 | 4.0 | 0.00 | 0.13 | 0.00 | 95 | 1008.2 |
| 20260507040009 | 54 | 174 | 1.0 | 4.0 | 0.00 | 0.13 | 0.00 | 95 | 1008.3 |
| 20260507035510 | 54 | 191 | 1.0 | 6.0 | 0.00 | 0.13 | 0.13 | 95 | 1008.2 |
| 20260507035007 | 55 | 195 | 2.0 | 7.0 | 0.00 | 0.13 | 0.13 | 95 | 1008.1 |
| 20260507034520 | 55 | 204 | 3.0 | 7.0 | 0.00 | 0.13 | 0.13 | 95 | 1008.0 |
| 20260507034003 | 55 | 210 | 1.0 | 5.0 | 0.00 | 0.13 | 0.13 | 95 | 1008.2 |
| 20260507033503 | 55 | 181 | 1.0 | 5.0 | 0.00 | 0.13 | 0.13 | 95 | 1008.1 |
| 20260507033015 | 55 | 160 | 1.0 | 4.0 | 0.00 | 0.13 | 0.13 | 95 | 1008.2 |
| 20260507032507 | 55 | 172 | 2.0 | 4.0 | 0.00 | 0.13 | 0.13 | 95 | 1008.0 |
| 20260507032010 | 55 | 175 | 2.0 | 5.0 | 0.00 | 0.13 | 0.13 | 95 | 1007.9 |
| 20260507031512 | 55 | 174 | 2.0 | 4.0 | 0.00 | 0.13 | 0.13 | 95 | 1007.8 |
| 20260507031003 | 55 | 199 | 2.0 | 3.0 | 0.00 | 0.13 | 0.13 | 95 | 1007.9 |
| 20260507030509 | 55 | 179 | 2.0 | 4.0 | 0.00 | 0.13 | 0.13 | 95 | 1007.9 |
| 20260507030014 | 55 | 167 | 1.0 | 6.0 | 0.00 | 0.13 | 0.13 | 95 | 1007.9 |
| 20260507025505 | 55 | 168 | 1.0 | 6.0 | 0.00 | 0.13 | 0.13 | 95 | 1007.9 |
| 20260507025005 | 55 | 153 | 1.0 | 4.0 | 0.00 | 0.13 | 0.13 | 95 | 1007.9 |
| 20260507024515 | 55 | 148 | 2.0 | 4.0 | 0.00 | 0.13 | 0.13 | 95 | 1008.0 |
| 20260507024008 | 55 | 159 | 1.0 | 4.0 | 0.00 | 0.13 | 0.13 | 95 | 1008.1 |
| 20260507023504 | 55 | 187 | 1.0 | 4.0 | 0.00 | 0.13 | 0.13 | 95 | 1008.2 |
| 20260507023011 | 55 | 186 | 2.0 | 4.0 | 0.00 | 0.13 | 0.13 | 95 | 1008.3 |
| 20260507022505 | 55 | 154 | 1.0 | 4.0 | 0.00 | 0.13 | 0.13 | 95 | 1008.4 |
| 20260507022008 | 56 | 177 | 1.0 | 4.0 | 0.00 | 0.13 | 0.13 | 95 | 1008.4 |
| 20260507021514 | 56 | 153 | 2.0 | 4.0 | 0.00 | 0.13 | 0.13 | 95 | 1008.5 |
| 20260507021008 | 56 | 150 | 1.0 | 5.0 | 0.00 | 0.13 | 0.13 | 95 | 1008.6 |
| 20260507020507 | 56 | 143 | 2.0 | 5.0 | 0.00 | 0.13 | 0.13 | 95 | 1008.7 |
| 20260507020022 | 56 | 139 | 2.0 | 5.0 | 0.00 | 0.13 | 0.13 | 95 | 1008.6 |
| 20260507015506 | 56 | 180 | 2.0 | 5.0 | 0.00 | 0.13 | 0.13 | 95 | 1008.6 |
| 20260507015008 | 56 | 134 | 2.0 | 6.0 | 0.00 | 0.13 | 0.13 | 95 | 1008.7 |
| 20260507014516 | 56 | 193 | 1.0 | 6.0 | 0.00 | 0.13 | 0.13 | 95 | 1008.7 |
| 20260507014004 | 56 | 186 | 2.0 | 6.0 | 0.00 | 0.13 | 0.13 | 95 | 1008.8 |
| 20260507013505 | 56 | 175 | 3.0 | 7.0 | 0.01 | 0.13 | 0.13 | 95 | 1008.8 |
| 20260507013015 | 56 | 183 | 3.0 | 8.0 | 0.01 | 0.13 | 0.13 | 95 | 1008.9 |
| 20260507012504 | 56 | 172 | 2.0 | 8.0 | 0.01 | 0.13 | 0.13 | 95 | 1008.8 |
| 20260507012007 | 57 | 160 | 3.0 | 7.0 | 0.01 | 0.13 | 0.13 | 95 | 1008.7 |
| 20260507011523 | 56 | 148 | 2.0 | 5.0 | 0.01 | 0.13 | 0.13 | 95 | 1008.8 |
| 20260507011006 | 56 | 181 | 2.0 | 5.0 | 0.01 | 0.13 | 0.13 | 95 | 1008.8 |
| 20260507010507 | 57 | 168 | 2.0 | 6.0 | 0.02 | 0.13 | 0.13 | 95 | 1008.7 |
| 20260507010016 | 57 | 155 | 2.0 | 6.0 | 0.02 | 0.13 | 0.13 | 95 | 1008.8 |
| 20260507005507 | 57 | 153 | 2.0 | 6.0 | 0.02 | 0.13 | 0.13 | 95 | 1008.8 |
| 20260507005007 | 57 | 143 | 3.0 | 8.0 | 0.02 | 0.13 | 0.13 | 95 | 1008.7 |
| 20260507004516 | 57 | 145 | 2.0 | 8.0 | 0.02 | 0.13 | 0.13 | 95 | 1008.6 |
| 20260507004010 | 57 | 145 | 2.0 | 6.0 | 0.02 | 0.13 | 0.13 | 95 | 1008.5 |
| 20260507003508 | 57 | 157 | 3.0 | 6.0 | 0.02 | 0.12 | 0.12 | 95 | 1008.6 |
| 20260507003015 | 57 | 151 | 2.0 | 5.0 | 0.03 | 0.12 | 0.12 | 95 | 1008.7 |
| 20260507002506 | 57 | 132 | 2.0 | 6.0 | 0.03 | 0.12 | 0.12 | 95 | 1008.7 |
| 20260507002006 | 57 | 121 | 1.0 | 6.0 | 0.04 | 0.12 | 0.12 | 95 | 1008.8 |
| 20260507001543 | 57 | 183 | 3.0 | 5.0 | 0.05 | 0.12 | 0.12 | 95 | 1008.6 |
| 20260507001008 | 57 | 140 | 2.0 | 4.0 | 0.06 | 0.12 | 0.12 | 95 | 1008.7 |
| 20260507000507 | 57 | 169 | 2.0 | 4.0 | 0.06 | 0.11 | 0.11 | 95 | 1008.7 |
| 20260507000023 | 57 | 136 | 1.0 | 4.0 | 0.07 | 0.11 | 0.11 | 95 | 1008.7 |
| 20260506235506 | 56 | 195 | 1.0 | 4.0 | 0.07 | 0.11 | 0.11 | 95 | 1008.6 |
| 20260506235009 | 56 | 165 | 1.0 | 4.0 | 0.08 | 0.11 | 0.11 | 95 | 1008.5 |
| 20260506234518 | 56 | 162 | 1.0 | 3.0 | 0.08 | 0.11 | 0.11 | 94 | 1008.6 |
| 20260506234006 | 56 | 160 | 1.0 | 6.0 | 0.08 | 0.11 | 0.11 | 94 | 1008.7 |
| 20260506233506 | 56 | 113 | 1.0 | 6.0 | 0.08 | 0.10 | 0.10 | 94 | 1008.6 |
| 20260506233019 | 56 | 130 | 1.0 | 3.0 | 0.08 | 0.09 | 0.09 | 94 | 1008.6 |
| 20260506232509 | 57 | 114 | 1.0 | 5.0 | 0.09 | 0.09 | 0.09 | 94 | 1008.6 |
| 20260506232009 | 57 | 164 | 1.0 | 5.0 | 0.08 | 0.08 | 0.08 | 94 | 1008.7 |
| 20260506231520 | 57 | 190 | 1.0 | 5.0 | 0.07 | 0.07 | 0.07 | 94 | 1008.8 |
| 20260506231004 | 57 | 165 | 1.0 | 5.0 | 0.06 | 0.06 | 0.06 | 94 | 1008.9 |